HINODE (SOLAR-B)

Last updated on Sat Dec 13 2025 00:03:34 GMT+0000 (Coordinated Universal Time)

1 29479U 06041A 25346.28078233 .00001202 00000+0 21629-3 0 9992 2 29479 98.0652 0.1308 0018040 157.2133 202.9876 14.68301433 27444
UTC large
Height (km)
Speed (km/s)
/
Latitude / Longitude
Inclination (degrees)
Orbital Period (minutes)
Azimuth
Elevation
Range (km)
Doppler Factor

Next 0 passes for location: London (51.5072 / 0.1276)

Sorry there are no passes over London.